Location: Fasanenhof
(48.7107°N, 9.1590°E)
Time: 19:24:13
(UTC+00:00)

Daily predictions for brighter satellites

Satellite Brightness Start Highest point End
(mag) Time Altitude Azimuth Time Altitude Azimuth Time Altitude Azimuth
Cosmos 2278 Rocket 3.5 15:59:07 10° SSE 16:03:14 21° E 16:07:21 10° NE
Cosmos 1544 Rocket 3.6 16:01:00 10° S 16:05:14 61° E 16:09:29 10° NNE
COSMOS 2455 2.9 16:00:53 10° NNW 16:06:53 63° NE 16:12:50 10° SE
CZ-2D R/B 3.0 16:05:14 10° SSE 16:08:42 64° ENE 16:12:12 10° N
Cosmos 1937 Rocket 4.3 16:05:23 10° SSE 16:10:05 34° ESE 16:14:46 10° NE
Cosmos 1666 3.2 16:07:48 10° NNW 16:10:56 51° W 16:14:01 10° S
SJ-6F 4.4 16:08:01 10° SSE 16:11:58 57° ENE 16:15:54 10° N
NOSS 3-2 (C) 4.1 16:05:08 10° NW 16:12:16 64° NE 16:20:48 10° SE
Cosmos 2181 Rocket 4.1 16:06:31 10° SSE 16:12:25 52° E 16:18:20 10° NNE
Cosmos 1825 Rocket 4.4 16:11:04 10° N 16:14:55 28° ENE 16:18:46 10° SE
Cosmos 1680 Rocket 3.8 16:10:05 10° NNW 16:15:03 42° ENE 16:19:58 10° SE
USA 59 Rocket 0.5 16:12:08 10° WSW 16:15:04 33° NW 16:17:50 10° NNE
IRIDIUM 106 4.3 16:10:34 10° S 16:15:46 77° E 16:21:01 10° N
Cosmos 2341 Rocket 4.1 16:10:07 10° N 16:16:34 89° W 16:22:56 10° S
Cosmos 1758 Rocket 3.5 16:13:13 10° N 16:17:42 74° E 16:22:10 10° SSE
Cosmos 1340 3.2 16:15:38 10° NNE 16:18:13 24° ENE 16:20:47 10° SE
NOSS 2-1 (D) 4.2 16:16:31 10° WSW 16:19:27 30° NW 16:22:10 10° NNE
IRS-P3 4.4 16:16:32 10° S 16:21:51 77° WSW 16:27:12 10° NNW
CZ-2D R/B 3.2 16:20:55 10° SSE 16:24:48 77° ENE 16:28:48 10° N
Cosmos 1602 3.4 16:21:41 10° N 16:25:08 62° E 16:28:33 10° SSE
Cosmos 1862 3.9 16:21:57 10° NNW 16:25:40 56° W 16:29:19 10° S
AQUARIUS 4.5 16:22:08 10° SE 16:26:19 42° ENE 16:30:31 10° N
Cosmos 1606 Rocket 4.3 16:23:24 10° SSE 16:27:09 30° E 16:30:56 10° NNE
Geosat 3.9 16:22:23 10° SE 16:27:22 73° ENE 16:32:24 10° NNW
Timation 2 Rocket 4.1 16:21:12 10° SSW 16:27:40 86° ESE 16:34:28 10° NNE
Aureole 1 Rocket 2.5 16:25:05 10° S 16:28:13 60° ESE 16:31:59 10° NNE
COSMOS 2406 4.1 16:24:06 10° NNW 16:28:59 28° NE 16:33:51 10° ESE
Cosmos 2151 3.6 16:26:01 10° N 16:29:45 31° ENE 16:33:27 10° SE
IGS 5A 4.0 16:28:00 10° SE 16:31:39 33° ENE 16:35:18 10° N
Cosmos 2228 3.1 16:27:53 10° SSW 16:32:02 75° W 16:36:12 10° N
USA 290 3.8 16:32:12 10° SW 16:35:17 35° WNW 16:38:22 10° N
CORIOLIS 4.1 16:33:30 10° SSE 16:38:49 82° ENE 16:44:12 10° NNW
Meteor 1-31 Rocket 4.0 16:36:28 10° ESE 16:39:08 19° ENE 16:41:48 10° NNE
Cosmos 923 Rocket 4.0 16:34:02 10° NNW 16:39:20 85° ENE 16:44:34 10° SSE
Cosmos 1844 Rocket 4.4 16:34:50 10° WSW 16:39:36 27° NW 16:44:24 10° NNE
Cosmos 372 Rocket 4.0 16:36:29 10° SSW 16:41:43 78° ESE 16:46:57 10° NNE
Okean 1-7 Rocket 3.7 16:39:28 10° N 16:44:02 85° W 16:48:35 10° S
SL-16 R/B 3.9 16:42:14 10° N 16:47:45 36° WNW 16:53:17 10° SW
ISS -2.1 16:44:44 10° W 16:47:52 35° SSW 16:50:59 10° SE
Cosmos 1812 2.3 16:46:13 10° S 16:49:37 89° E 16:53:04 10° N
Cosmos 1076 Rocket 4.1 16:51:11 10° N 16:55:01 32° ENE 16:58:49 10° SE
Cosmos 1340 Rocket 4.2 16:52:43 10° SE 16:54:58 19° E 16:54:58 19° E
Landsat 7 4.4 16:52:52 10° SE 16:57:05 34° ENE 17:01:19 10° N
ADEOS Rocket 4.4 16:53:26 10° S 17:00:47 51° W 17:07:38 10° NNW
USA-17 4.1 17:01:40 10° NW 17:04:44 83° NE 17:08:08 10° SE
Cosmos 220 Rocket 4.0 17:00:49 10° NNW 17:04:55 77° WSW 17:08:59 10° SSE
Aureole 2 4.5 17:02:25 10° S 17:05:01 36° ESE 17:05:01 36° ESE
Cosmos 1726 Rocket 3.5 17:01:31 10° S 17:05:42 56° E 17:09:40 11° NNE
Cosmos 2239 Rocket 4.4 16:59:56 10° N 17:06:18 77° E 17:12:36 10° SSE
Cosmos 44 3.7 17:05:21 10° NW 17:09:36 55° WSW 17:13:49 10° SSE
Cosmos 1378 2.2 17:12:48 10° S 17:15:28 65° ESE 17:15:28 65° ESE
Genesis I 2.8 17:14:25 10° SSW 17:17:39 59° SE 17:18:10 51° E
SMAP 4.2 17:13:19 10° S 17:17:46 45° W 17:22:15 10° NNW
Meteor 1-22 4.5 17:12:45 10° N 17:18:07 74° ENE 17:23:28 10° SSE
Cosmos 1048 Rocket 4.1 17:19:06 10° NNW 17:24:10 50° ENE 17:28:08 16° SE
NOSS 2-2 (E) 4.1 17:20:45 10° NNW 17:24:26 39° NE 17:25:01 37° ENE
Cosmos 1898 Rocket 4.5 17:23:22 10° SW 17:28:20 45° WNW 17:33:18 10° NNE
Cosmos 1339 Rocket 4.4 17:24:25 10° S 17:30:42 67° E 17:36:57 10° NNE
Meteor 1-25 Rocket 4.2 17:25:08 10° N 17:30:54 64° ENE 17:36:34 10° SSE
Cosmos 2058 Rocket 3.0 17:28:33 10° S 17:32:46 55° E 17:33:45 44° NE
MOS 1-B Rocket 3.7 17:27:55 10° SSE 17:33:29 79° ENE 17:39:22 10° NNW
USA 238 DEB 3.9 17:28:14 10° NW 17:35:36 86° NE 17:43:33 10° SE
USA 238 3.9 17:28:20 10° NW 17:35:42 86° NE 17:43:39 10° SE
COSMO-SKYMED 1 2.4 17:35:10 29° NNE 17:37:22 76° ESE 17:41:43 10° S
Timation 1 Rocket 4.4 17:32:18 10° NNW 17:38:12 56° NE 17:40:52 32° ESE
YAOGAN 1 2.5 17:38:07 42° SE 17:39:14 58° ENE 17:43:27 10° N
Nadezhda 3 Rocket 4.1 17:33:23 10° SSW 17:39:35 75° W 17:45:46 10° N
ATLAS 3B R/B 4.3 17:34:37 10° WNW 17:40:58 27° N 17:44:48 19° NNE
Cosmos 2082 Rocket 2.2 17:35:35 10° NNW 17:41:20 83° WSW 17:47:02 10° SSE
Cosmos 1943 Rocket 2.0 17:37:34 10° SSW 17:43:07 84° ESE 17:45:53 31° NNE
Meteor 1-20 Rocket 4.1 17:38:20 10° NNW 17:43:49 85° WSW 17:49:20 10° S
NOSS 2-2 (C) 3.6 17:41:27 10° NW 17:45:33 76° NE 17:47:08 44° SE
ACS3 Solar Sail 2.1 17:42:53 28° ESE 17:45:47 46° ENE 17:51:45 10° N
Cosmos 2278 Rocket 2.4 17:41:03 10° SW 17:46:42 71° WNW 17:50:14 24° NNE
NOSS 2-3 (C) 4.4 17:54:48 10° NW 17:59:54 53° NE 18:00:21 52° ENE
Cosmos 1782 3.6 18:00:06 10° SSW 18:02:41 42° SSW 18:02:41 42° SSW
NOAA 6 4.4 18:03:55 10° S 18:09:00 64° WSW 18:14:06 10° NNW
Meteor 1-31 Rocket 4.0 18:09:00 10° SSW 18:12:28 38° W 18:15:56 10° NNW
Meteor 1-5 Rocket 4.0 18:07:48 10° N 18:13:15 79° ENE 18:13:32 76° ESE
COSMOS 2406 3.5 18:08:03 10° NNW 18:13:46 67° WSW 18:18:07 18° SSE
NOSS 3-4 (A) 3.0 18:10:17 10° SSW 18:15:41 78° SE 18:15:47 78° ESE
NOSS 3-4 (C) 3.0 18:10:23 10° SSW 18:15:47 77° SE 18:15:50 77° ESE
NOSS 2-2 (D) 4.2 18:17:51 10° NW 18:20:50 52° NW 18:20:50 52° NW
Cosmos 1605 Rocket 4.0 18:16:50 10° N 18:23:12 80° W 18:29:35 10° S
BREEZE-M TANK 4.1 18:25:12 10° SW 18:27:25 28° SSW 18:27:25 28° SSW
SPOT 1/Viking Rocket 4.2 18:35:53 48° NNW 18:35:53 48° NNW 18:39:40 10° NNW
BREEZE-M DEB (TANK) 3.9 18:48:10 10° W 19:04:28 79° W 19:04:28 79° W
Cosmos 1943 Rocket 4.2 19:23:16 10° W 19:27:25 22° NW 19:27:25 22° NW
ACS3 Solar Sail 3.1 19:27:45 31° SW 19:29:33 37° W 19:35:21 10° NNW
Cosmos 2278 Rocket 4.4 19:28:01 10° W 19:31:50 18° NW 19:32:05 18° NW
ATLAS 3B R/B 4.3 19:27:20 10° NW 19:32:02 28° N 19:32:02 28° N
